Location: Chittendens Corners
(41.2320°N, 81.4940°W)
Time: 18:20:57
(UTC+00:00)

Cosmos 1689 Rocket - Pass Details

Date: 29 October 2020
Orbit: 360 x 375 km, 97.5° (Epoch: 23 November)

Event Time Altitude Azimuth Distance (km) Brightness Sun altitude
Rises 22:56:04 0° 27° (NNE) 2,204 5.5 -6.6°
Reaches altitude 10° 22:58:19 10° 44° (NE) 1,351 4.3 -7.0°
Maximum altitude 23:00:34 21° 96° (E) 887 3.3 -7.4°
Drops below altitude 10° 23:02:49 10° 148° (SSE) 1,341 4.6 -7.8°
Sets 23:05:02 0° 166° (SSE) 2,182 5.9 -8.2°
